カタログに戻る

STARLINK-35944

運用中通信VLEO
NORAD 66928·PAYLOAD·🇺🇸 United States

打ち上げ Dec 7, 2025 から Vandenberg Space Force Base

Loading…

次のパス (今後24時間)

TLE

最新Source: CelesTrak SupGP

元期: Sep 15, 2026, 03:47 UTC

1 66928C 25286D   26258.15812500 -.00046257  00000+0 -13667-2 0  2587
2 66928  53.1589 195.0207 0001346  85.4851 244.1548 15.34412786    13

AllMySatでSTARLINK-35944をリアルタイム追跡

Download on the App Store